Weather History for Vero Beach, FL

Change the Weather History Date:

Sunday, March 9, 2014

  Actual Average Record
Temperature  
Mean Temperature 64 °F 67 °F  
Max Temperature 76 °F 77 °F 90 °F (2003)
Min Temperature 51 °F 57 °F 36 °F (1996)
Degree Days  
Heating Degree Days 1 2  
Month to date heating degree days 5 23  
Since 1 July heating degree days 240 408  
Cooling Degree Days 0 4  
Month to date cooling degree days 25 36  
Year to date cooling degree days 233 175  
Growing Degree Days 14 (Base 50)    
Moisture  
Dew Point 56 °F    
Average Humidity 75    
Maximum Humidity 100    
Minimum Humidity 50    
Precipitation  
Precipitation 0.00 in 0.13 in 4.40 in (1969)
Month to date precipitation 0.07 1.08  
Year to date precipitation 6.62 6.25  
Sea Level Pressure  
Sea Level Pressure 30.14 in    
Wind  
Wind Speed 5 mph (North)    
Max Wind Speed 14 mph    
Max Gust Speed 16 mph    
Visibility 5 miles    
Events Fog    
T = Trace of Precipitation, MM = Missing Value Source: NWS Daily Summary

Daily Weather History Graph

Daily Weather History Graph

Search for Another Location

Airport:

Trip Planner

Search our weather history database for the weather conditions in past years. The results will help you decide how hot, cold, wet, or windy it might be!

Date:

Astronomy

Mar. 09, 2014 Rise Set
Actual Time 7:37 AM EDT 7:26 PM EDT
Civil Twilight 7:14 AM EDT 7:50 PM EDT
Nautical Twilight 6:47 AM EDT 8:17 PM EDT
Astronomical Twilight 6:20 AM EDT 8:44 PM EDT
Moon 1:39 PM EDT (3/9) 3:40 AM EDT (3/9)
Length of Visible Light 12h 35m
Length of Day
11h 49m
First Quarter, 61% of the Moon is Illuminated
Mar 9
First Quarter
Mar 16
Full
Mar 23
Last Quarter
Mar 30
New
Apr 7
First Quarter

Hourly Weather History & Observations

Time (EDT) Temp. Dew Point Humidity Pressure Visibility Wind Dir Wind Speed Gust Speed Precip Events Conditions
12:18 AM 59.0 °F 59.0 °F 100% 30.15 in 3.0 mi Calm Calm - N/A   Clear
12:27 AM 59.0 °F 59.0 °F 100% 30.15 in 1.8 mi North 3.5 mph - N/A   Clear
12:39 AM 57.9 °F 57.9 °F 100% 30.14 in 3.0 mi NNW 3.5 mph - N/A   Clear
12:49 AM 57.2 °F 57.2 °F 100% 30.14 in 2.5 mi North 3.5 mph - N/A   Partly Cloudy
12:53 AM 57.9 °F 57.0 °F 97% 30.14 in 2.5 mi Calm Calm - N/A   Partly Cloudy
1:03 AM 59.0 °F 57.9 °F 96% 30.14 in 5.0 mi Calm Calm - N/A   Partly Cloudy
1:28 AM 55.9 °F 55.0 °F 97% 30.14 in 1.8 mi NNW 3.5 mph - N/A   Clear
1:37 AM 55.9 °F 55.0 °F 97% 30.14 in 0.5 mi Calm Calm - N/A Fog Fog
1:45 AM 55.9 °F 55.0 °F 97% 30.14 in 2.0 mi Calm Calm - N/A   Mostly Cloudy
1:53 AM 55.0 °F 55.0 °F 100% 30.14 in 10.0 mi NNW 3.5 mph - N/A   Mostly Cloudy
3:02 AM 55.0 °F 54.0 °F 96% 30.14 in 1.8 mi NNW 3.5 mph - N/A   Mostly Cloudy
3:11 AM 55.9 °F 55.0 °F 97% 30.13 in 3.0 mi NNW 4.6 mph - N/A   Mostly Cloudy
3:16 AM 55.9 °F 55.0 °F 97% 30.13 in 1.8 mi North 4.6 mph - N/A   Mostly Cloudy
3:19 AM 55.9 °F 55.9 °F 100% 30.13 in 0.8 mi North 4.6 mph - N/A   Mist
3:30 AM 55.9 °F 55.9 °F 100% 30.13 in 0.2 mi North 4.6 mph - N/A Fog Fog
3:35 AM 55.9 °F 55.9 °F 100% 30.13 in 0.5 mi North 3.5 mph - N/A Fog Fog
3:43 AM 55.9 °F 55.9 °F 100% 30.13 in 0.8 mi North 4.6 mph - N/A   Mist
3:51 AM 57.2 °F 55.4 °F 94% 30.13 in 0.5 mi NNW 4.6 mph - N/A Fog Fog
3:53 AM 57.0 °F 55.9 °F 96% 30.13 in 0.5 mi NNW 4.6 mph - N/A Fog Fog
3:57 AM 57.0 °F 55.9 °F 96% 30.13 in 0.2 mi NNW 3.5 mph - N/A Fog Fog
4:10 AM 57.0 °F 55.9 °F 96% 30.13 in 1.2 mi Calm Calm - N/A   Scattered Clouds
4:12 AM 57.0 °F 55.9 °F 96% 30.13 in 3.0 mi Calm Calm - N/A   Scattered Clouds
4:27 AM 55.9 °F 55.9 °F 100% 30.13 in 6.0 mi Calm Calm - N/A   Mostly Cloudy
4:41 AM 55.0 °F 55.0 °F 100% 30.12 in 2.5 mi Calm Calm - N/A   Mostly Cloudy
4:46 AM 55.9 °F 55.9 °F 100% 30.12 in 1.0 mi Calm Calm - N/A   Mist
4:51 AM 57.2 °F 55.4 °F 94% 30.12 in 0.2 mi Calm Calm - N/A Fog Fog
4:53 AM 57.0 °F 55.9 °F 96% 30.12 in 0.2 mi Calm Calm - N/A Fog Fog
5:04 AM 55.9 °F 55.9 °F 100% 30.12 in 1.0 mi Calm Calm - N/A   Mist
5:14 AM 54.0 °F 54.0 °F 100% 30.12 in 0.2 mi Calm Calm - N/A Fog Fog
5:41 AM 53.1 °F 53.1 °F 100% 30.12 in 1.0 mi Calm Calm - N/A   Mist
5:53 AM 54.0 °F 54.0 °F 100% 30.12 in 1.0 mi Calm Calm - N/A   Mist
6:09 AM 53.1 °F 53.1 °F 100% 30.13 in 0.5 mi Calm Calm - N/A Fog Fog
6:35 AM 52.0 °F 52.0 °F 100% 30.14 in 0.2 mi Calm Calm - N/A Fog Fog
6:53 AM 52.0 °F 52.0 °F 100% 30.14 in 0.2 mi Calm Calm - N/A Fog Fog
7:08 AM 53.1 °F 52.0 °F 96% 30.15 in 1.0 mi Calm Calm - N/A   Mist
7:16 AM 53.1 °F 52.0 °F 96% 30.15 in 10.0 mi NW 3.5 mph - N/A   Scattered Clouds
7:53 AM 54.0 °F 54.0 °F 100% 30.16 in 8.0 mi Calm Calm - N/A   Scattered Clouds
8:53 AM 63.0 °F 61.0 °F 93% 30.18 in 10.0 mi North 3.5 mph - N/A   Clear
9:53 AM 70.0 °F 60.1 °F 71% 30.20 in 10.0 mi North 10.4 mph - N/A   Clear
10:53 AM 73.0 °F 57.0 °F 57% 30.20 in 10.0 mi North 9.2 mph - N/A   Clear
11:53 AM 75.0 °F 55.0 °F 50% 30.20 in 10.0 mi North 10.4 mph - N/A   Clear
12:53 PM 75.9 °F 55.0 °F 48% 30.18 in 10.0 mi NE 10.4 mph - N/A   Clear
1:53 PM 75.0 °F 55.0 °F 50% 30.16 in 10.0 mi NNE 10.4 mph - N/A   Clear
2:53 PM 75.0 °F 55.0 °F 50% 30.14 in 10.0 mi NE 9.2 mph - N/A   Clear
3:53 PM 75.0 °F 55.9 °F 51% 30.11 in 10.0 mi ENE 10.4 mph - N/A   Clear
4:53 PM 73.9 °F 55.9 °F 53% 30.11 in 10.0 mi NE 9.2 mph - N/A   Clear
5:53 PM 73.0 °F 57.0 °F 57% 30.11 in 10.0 mi NE 9.2 mph - N/A   Clear
6:53 PM 71.1 °F 57.9 °F 63% 30.11 in 10.0 mi East 5.8 mph - N/A   Clear
7:53 PM 66.9 °F 59.0 °F 76% 30.11 in 10.0 mi East 4.6 mph - N/A   Clear
8:53 PM 62.1 °F 57.0 °F 84% 30.12 in 10.0 mi Calm Calm - N/A   Clear
9:53 PM 62.1 °F 57.9 °F 86% 30.13 in 10.0 mi Calm Calm - N/A   Clear
10:53 PM 60.1 °F 57.0 °F 90% 30.13 in 10.0 mi Calm Calm - N/A   Clear
11:53 PM 60.1 °F 57.0 °F 90% 30.12 in 10.0 mi Calm Calm - N/A   Clear
12:53 AM 59.0 °F 55.9 °F 90% 30.12 in 10.0 mi Calm Calm - N/A   Clear